Measurements were made at the meteorological tower in Juelich (50.90 N / 6.40 E) at an altitude of 100 m,
"Instrument: Fast Greenhouse Gas Analyzer (FGGA), Los Gatos Inc.",
Responsible PI: Dr. Marc von Hobe; Forschungszentrum Juelich GmbH; IEK-7; email: m.von.hobe@fz-juelich.de,
NaN or negative numbers are fill values (i.e. no valid measurements were made at that time),
Uncertainties are given as the 1-sigma standard deviation over each 10 minute intervals. In each interval ~600 individual measurements are carried out so that the standard error of the mean is approximately sigma/sqrt(600).,
time_utc,CO2_ppm,stdev_CO2_ppm,CH4_ppm,stdev_CH4_ppm,H2O_ppm,stdev_H2O_ppm
"2016-11-01 00:05:00 000",413.207,1.42351,1.95984,0.00463965,8776.76,103.780
"2016-11-01 00:15:00 000",414.324,1.01760,1.96637,0.00619336,8782.83,107.120
"2016-11-01 00:25:00 000",414.319,1.04539,1.97138,0.00521862,8659.04,114.809
"2016-11-01 00:35:00 000",415.961,1.79228,1.96735,0.0112093,8474.48,128.911
"2016-11-01 00:45:00 000",418.346,2.00701,1.97637,0.0106790,8394.17,95.2261
"2016-11-01 00:55:00 000",420.449,1.31429,1.98483,0.00688808,8390.15,105.544
"2016-11-01 01:05:00 000",422.793,1.06912,2.00020,0.00705562,8340.75,113.236
"2016-11-01 01:15:00 000",420.893,1.61124,1.98297,0.0125855,8460.96,129.712
"2016-11-01 01:25:00 000",418.548,3.72932,1.96093,0.0240263,8552.65,123.082
"2016-11-01 01:35:00 000",416.483,2.33590,1.94980,0.0123279,8666.55,106.035
"2016-11-01 01:45:00 000",415.883,1.41136,1.94229,0.00453006,8713.02,107.027
"2016-11-01 01:55:00 000",417.278,0.871499,1.94446,0.00406799,8545.84,136.330
"2016-11-01 02:05:00 000",415.827,0.954353,1.94292,0.00383973,8621.22,127.704
"2016-11-01 02:15:00 000",414.643,1.24302,1.94306,0.00418539,8826.27,94.7779
"2016-11-01 02:25:00 000",413.508,1.43190,1.95101,0.00440064,8773.95,109.872
"2016-11-01 02:35:00 000",411.561,0.983667,1.95663,0.00455243,8703.21,95.4441
"2016-11-01 02:45:00 000",415.092,1.16965,1.96691,0.00438221,8689.23,104.339
"2016-11-01 02:55:00 000",415.837,1.12776,1.97666,0.00605926,8445.21,115.542
"2016-11-01 03:05:00 000",415.941,1.35593,1.98163,0.00488958,8382.12,110.334
"2016-11-01 03:15:00 000",416.079,1.05361,1.98183,0.00514543,8309.38,101.507
"2016-11-01 03:25:00 000",416.822,1.05206,1.98487,0.00636011,8267.61,107.535
"2016-11-01 03:35:00 000",417.497,1.15459,1.99271,0.0102573,8173.30,105.567
"2016-11-01 03:45:00 000",418.755,2.69707,2.04073,0.0568613,8311.03,139.975
"2016-11-01 03:55:00 000",419.196,3.12369,2.10315,0.0556176,8549.80,99.4275
"2016-11-01 04:05:00 000",414.106,1.12231,2.02073,0.0144977,8625.90,121.780
"2016-11-01 04:15:00 000",414.381,1.07296,2.00138,0.00677471,8583.41,109.556
"2016-11-01 04:25:00 000",414.782,1.57262,2.01781,0.0190315,8509.37,121.719
"2016-11-01 04:35:00 000",413.592,1.11064,2.01042,0.00932055,8372.66,105.536
"2016-11-01 04:45:00 000",414.276,1.18575,2.00536,0.00516828,8165.46,114.586
"2016-11-01 04:55:00 000",415.133,1.09884,2.00251,0.00538040,8129.38,111.656
"2016-11-01 05:05:00 000",414.628,1.04026,2.00132,0.00524943,8046.23,117.027
"2016-11-01 05:15:00 000",414.108,1.12845,2.00317,0.00557324,8030.51,120.548
"2016-11-01 05:25:00 000",411.742,1.11281,1.99191,0.00613450,8216.76,140.248
"2016-11-01 05:35:00 000",411.242,1.82359,1.98844,0.0138525,8130.41,135.176
"2016-11-01 05:45:00 000",407.077,1.66432,1.94779,0.0138384,8284.72,186.685
"2016-11-01 05:55:00 000",406.623,1.19326,1.93749,0.00582960,8564.35,134.854
"2016-11-01 06:05:00 000",406.682,1.03560,1.93852,0.00578788,8505.50,129.337
"2016-11-01 06:15:00 000",406.432,1.09693,1.93596,0.00546226,8650.50,123.529
"2016-11-01 06:25:00 000",406.484,1.37206,1.93311,0.00645859,8682.36,137.624
"2016-11-01 06:35:00 000",405.486,1.04606,1.92515,0.00451937,8901.79,121.948
"2016-11-01 06:45:00 000",406.028,0.979987,1.92769,0.00538835,9020.35,127.112
"2016-11-01 06:55:00 000",410.489,4.67494,1.94970,0.0165810,9011.23,133.574
"2016-11-01 07:05:00 000",423.366,7.84776,2.01165,0.0328847,9147.86,122.482
"2016-11-01 07:15:00 000",413.946,2.20591,1.98161,0.00923340,9310.87,120.737
"2016-11-01 07:25:00 000",416.032,1.03415,1.98743,0.00793497,9540.33,115.073
"2016-11-01 07:35:00 000",418.533,2.75376,2.00118,0.0128646,9552.68,114.300
"2016-11-01 07:45:00 000",423.336,1.47158,2.05908,0.0158414,9478.81,121.678
"2016-11-01 07:55:00 000",422.412,2.29423,2.06946,0.0254260,9739.00,169.056
"2016-11-01 08:05:00 000",418.887,2.13191,2.01971,0.0197732,10050.1,132.322
"2016-11-01 08:15:00 000",417.453,1.44596,2.00511,0.0128171,10092.3,137.098
"2016-11-01 08:25:00 000",414.977,1.48479,1.99100,0.00785062,10132.2,149.999
"2016-11-01 08:35:00 000",412.539,1.45562,1.97665,0.00679564,9713.44,283.606
"2016-11-01 08:45:00 000",410.874,0.933758,1.97143,0.00563613,8979.26,249.702
"2016-11-01 08:55:00 000",414.842,1.77547,1.98799,0.00821082,8231.28,208.331
"2016-11-01 09:05:00 000",417.897,1.23827,2.01045,0.0111396,8054.62,138.909
"2016-11-01 09:15:00 000",419.611,1.90906,2.04431,0.00670331,8083.09,133.827
"2016-11-01 09:25:00 000",429.686,6.01178,2.07020,0.0159059,8250.37,142.798
"2016-11-01 09:35:00 000",431.174,4.84061,2.07987,0.0158473,8372.64,130.134
"2016-11-01 09:45:00 000",430.265,2.99124,2.08769,0.0183585,8476.74,131.771
"2016-11-01 09:55:00 000",429.872,4.11166,2.08048,0.0216063,8544.96,124.822
"2016-11-01 10:05:00 000",429.642,3.10694,2.08881,0.0198848,8621.82,118.968
"2016-11-01 10:15:00 000",428.682,2.44494,2.20389,0.0535678,8749.34,105.420
"2016-11-01 10:25:00 000",428.740,2.55585,2.33473,0.0626662,8971.49,103.651
"2016-11-01 10:35:00 000",428.106,1.56010,2.39509,0.0409304,9151.59,136.788
"2016-11-01 10:45:00 000",425.443,1.44907,2.16577,0.0613228,9045.78,136.317
"2016-11-01 10:55:00 000",425.369,1.26675,2.15323,0.0418634,9347.11,117.102
"2016-11-01 11:05:00 000",426.850,5.60384,2.10246,0.0383310,9476.80,129.439
"2016-11-01 11:15:00 000",427.518,4.53144,2.08984,0.0240474,9610.43,127.346
"2016-11-01 11:25:00 000",425.902,2.16519,2.08070,0.0239067,9595.43,122.419
"2016-11-01 11:35:00 000",426.661,5.02840,2.10935,0.0511013,9660.50,121.076
"2016-11-01 11:45:00 000",422.715,5.40542,2.04849,0.0266469,9642.28,140.030
"2016-11-01 11:55:00 000",417.055,3.11716,2.02344,0.0250958,9753.54,155.067
"2016-11-01 12:05:00 000",418.252,2.04776,2.07686,0.0366292,9930.49,183.120
"2016-11-01 12:15:00 000",420.174,2.52712,2.11934,0.0408641,10183.0,201.773
"2016-11-01 12:25:00 000",415.828,1.68345,2.05928,0.0222405,10029.7,181.430
"2016-11-01 12:35:00 000",417.524,3.44216,2.01113,0.0248453,10055.4,155.220
"2016-11-01 12:45:00 000",411.331,4.23289,1.97429,0.0212669,9978.88,162.707
"2016-11-01 12:55:00 000",412.147,5.55835,1.97877,0.0261149,9966.13,152.718
"2016-11-01 13:05:00 000",408.898,1.36196,1.96905,0.0109822,10042.4,160.682
"2016-11-01 13:15:00 000",408.732,1.05392,1.96604,0.00718188,9830.18,163.604
"2016-11-01 13:25:00 000",410.541,2.19741,1.97652,0.0101006,9846.96,154.557
"2016-11-01 13:35:00 000",414.753,3.83603,1.99247,0.0225732,9831.22,163.270
"2016-11-01 13:45:00 000",423.309,6.03891,1.99852,0.0165189,10000.5,153.884
"2016-11-01 13:55:00 000",420.268,4.77765,2.00624,0.00570514,10070.1,150.663
"2016-11-01 14:05:00 000",426.388,4.67101,2.01112,0.00597996,9972.02,173.506
"2016-11-01 14:15:00 000",430.908,3.20518,2.01383,0.00833003,9783.70,138.296
"2016-11-01 14:25:00 000",423.605,1.55882,2.02170,0.00717121,9843.91,132.788
"2016-11-01 14:35:00 000",423.763,2.04322,2.03383,0.00961620,9943.82,132.208
"2016-11-01 14:45:00 000",426.755,2.37518,2.05600,0.0271765,10061.3,120.920
"2016-11-01 14:55:00 000",426.311,1.53300,2.07799,0.0427360,10007.3,124.104
"2016-11-01 15:05:00 000",425.152,1.27889,2.04697,0.00683175,9954.34,128.778
"2016-11-01 15:15:00 000",425.437,1.11336,2.04733,0.00639024,9763.32,118.068
"2016-11-01 15:25:00 000",426.361,1.19207,2.07280,0.0165294,9893.02,134.930
"2016-11-01 15:35:00 000",425.049,1.00230,2.08407,0.00471217,10034.1,106.332
"2016-11-01 15:45:00 000",425.285,0.984071,2.09031,0.00487820,10121.9,120.045
"2016-11-01 15:55:00 000",426.333,0.943787,2.10127,0.00638251,10157.8,117.245
"2016-11-01 16:05:00 000",427.314,1.18461,2.13010,0.00799160,10266.5,103.867
"2016-11-01 16:15:00 000",429.692,1.24289,2.14391,0.00903826,10224.6,112.028
"2016-11-01 16:25:00 000",431.076,1.09262,2.16390,0.00986468,10210.7,105.230
"2016-11-01 16:35:00 000",431.794,1.23089,2.17293,0.00931385,10203.5,103.257
"2016-11-01 16:45:00 000",431.279,1.53190,2.16720,0.00753736,10192.8,110.361
"2016-11-01 16:55:00 000",432.548,1.97023,2.17285,0.00798815,10210.7,114.348
"2016-11-01 17:05:00 000",429.399,1.13417,2.14426,0.00639186,10316.5,106.971
"2016-11-01 17:15:00 000",429.687,1.37805,2.15105,0.00691228,10346.6,104.089
"2016-11-01 17:25:00 000",429.139,1.16519,2.14554,0.00578454,10368.2,95.0068
"2016-11-01 17:35:00 000",428.777,1.09091,2.14762,0.00500066,10420.4,105.878
"2016-11-01 17:45:00 000",429.450,1.22967,2.15149,0.00593324,10457.0,109.700
"2016-11-01 17:55:00 000",431.486,1.32038,2.16108,0.00813163,10416.1,101.893
"2016-11-01 18:05:00 000",432.253,1.20018,2.17835,0.00672956,10340.0,111.083
"2016-11-01 18:15:00 000",431.872,1.27620,2.19335,0.0110832,10387.5,106.127
"2016-11-01 18:25:00 000",433.537,1.09052,2.21463,0.00871697,10440.2,105.020
"2016-11-01 18:35:00 000",434.285,1.37348,2.22591,0.00819210,10488.6,104.495
"2016-11-01 18:45:00 000",435.353,1.56712,2.25624,0.0132630,10542.3,98.3237
"2016-11-01 18:55:00 000",435.889,1.18582,2.26406,0.00641633,10559.1,100.350
"2016-11-01 19:05:00 000",435.203,1.74546,2.26409,0.00540791,10553.0,104.142
"2016-11-01 19:15:00 000",414.019,12.2028,2.06942,0.123020,10088.7,296.076
"2016-11-01 19:25:00 000",402.124,1.31292,1.94978,0.00867566,9454.46,159.621
"2016-11-01 19:35:00 000",401.440,1.02094,1.94244,0.00419083,9210.34,111.930
"2016-11-01 19:45:00 000",400.373,1.32571,1.92153,0.00910135,8887.10,151.012
"2016-11-01 19:55:00 000",398.979,0.937440,1.91193,0.00438146,8828.21,141.977
"2016-11-01 20:05:00 000",398.713,0.994921,1.90703,0.00444697,8789.03,128.736
"2016-11-01 20:15:00 000",398.392,1.03792,1.90586,0.00453421,8837.31,136.835
"2016-11-01 20:25:00 000",398.688,0.952119,1.90541,0.00443348,8842.56,137.937
"2016-11-01 20:35:00 000",399.087,1.07296,1.90561,0.00450055,8909.55,152.802
"2016-11-01 20:45:00 000",398.813,1.08784,1.90691,0.00441518,9010.71,158.255
"2016-11-01 20:55:00 000",399.324,0.847839,1.90653,0.00471392,8994.26,161.568
"2016-11-01 21:05:00 000",399.129,0.929268,1.90778,0.00506581,9050.10,167.595
"2016-11-01 21:15:00 000",399.801,0.978847,1.90966,0.00476950,9062.43,163.607
"2016-11-01 21:25:00 000",399.393,0.936671,1.90936,0.00465358,8935.54,173.126
"2016-11-01 21:35:00 000",399.806,0.889137,1.91193,0.00442095,8820.06,163.522
"2016-11-01 21:45:00 000",400.483,0.921510,1.91315,0.00411694,8865.99,160.000
"2016-11-01 21:55:00 000",400.660,0.826057,1.91509,0.00457103,8819.03,155.650
"2016-11-01 22:05:00 000",400.567,0.839200,1.91564,0.00454528,8950.45,161.971
"2016-11-01 22:15:00 000",401.443,0.985753,1.92035,0.00527220,8813.31,177.563
"2016-11-01 22:25:00 000",402.242,1.01275,1.94253,0.0122119,8834.50,162.725
"2016-11-01 22:35:00 000",402.877,1.12357,1.93341,0.00900714,8927.97,157.515
"2016-11-01 22:45:00 000",403.318,0.870410,1.93127,0.00591000,8857.57,157.994
"2016-11-01 22:55:00 000",403.841,1.13090,1.95102,0.0179916,8819.49,178.981
"2016-11-01 23:05:00 000",405.134,0.967203,1.95829,0.0143057,8824.36,165.028
"2016-11-01 23:15:00 000",406.020,1.00807,1.95909,0.00778409,8843.85,170.368
"2016-11-01 23:25:00 000",408.303,1.42493,2.12668,0.109586,8972.63,180.098
"2016-11-01 23:35:00 000",407.766,1.24213,2.16992,0.115715,9046.15,169.937
"2016-11-01 23:45:00 000",406.866,0.968590,2.01597,0.0158607,9010.72,162.880
"2016-11-01 23:55:00 000",407.064,0.915093,2.01023,0.00607865,9040.23,165.296
"2016-11-02 00:05:00 000",406.976,0.881035,2.02430,0.00781069,9049.67,189.522
"2016-11-02 00:15:00 000",406.428,0.955037,2.04030,0.00748724,9071.98,185.987
"2016-11-02 00:25:00 000",407.353,0.854217,2.04696,0.00546101,9104.70,189.881
"2016-11-02 00:35:00 000",407.353,1.01065,2.04618,0.00521789,9042.28,201.528
"2016-11-02 00:45:00 000",408.053,0.935762,2.04296,0.00529501,8974.67,197.696
"2016-11-02 00:55:00 000",408.182,0.944128,2.04020,0.00617087,9013.52,203.795
"2016-11-02 01:05:00 000",408.345,0.890302,2.03431,0.00647601,8978.48,204.524
"2016-11-02 01:15:00 000",407.600,1.00036,2.02259,0.00615134,8923.82,215.153
"2016-11-02 01:25:00 000",406.313,0.867291,2.01734,0.00583570,8846.10,208.468
"2016-11-02 01:35:00 000",407.741,1.04932,2.02669,0.00698554,8687.15,220.071
"2016-11-02 01:45:00 000",409.613,0.992388,2.03336,0.00566035,8621.48,219.911
"2016-11-02 01:55:00 000",410.382,1.01403,2.04209,0.00647286,8636.16,213.839
"2016-11-02 02:05:00 000",413.259,3.85278,2.05108,0.0130312,8561.18,212.816
"2016-11-02 02:15:00 000",421.040,3.85961,2.17014,0.0733955,8546.89,218.621
"2016-11-02 02:25:00 000",414.331,1.55517,2.29472,0.151679,8517.78,219.099
"2016-11-02 02:35:00 000",413.247,2.89800,2.03533,0.0170901,8510.98,229.196
"2016-11-02 02:45:00 000",421.147,4.46302,2.15567,0.0801103,8558.54,233.420
"2016-11-02 02:55:00 000",419.184,5.48333,2.09390,0.0540870,8627.31,222.605
"2016-11-02 03:05:00 000",412.625,1.44517,2.08240,0.0653417,8637.80,226.342
"2016-11-02 03:15:00 000",415.812,1.04716,2.08247,0.0337743,8610.88,231.567
"2016-11-02 03:25:00 000",416.631,0.841663,2.06848,0.0483715,8518.20,226.908
"2016-11-02 03:35:00 000",416.927,0.973403,2.03771,0.0208426,8608.45,229.012
"2016-11-02 03:45:00 000",416.071,1.28485,2.02131,0.0118154,8660.87,246.298
"2016-11-02 03:55:00 000",415.000,1.16648,2.00863,0.00919500,8759.57,236.666
"2016-11-02 04:05:00 000",414.636,1.56740,2.00192,0.00664802,8713.33,244.064
"2016-11-02 04:15:00 000",415.264,1.10174,2.01582,0.0185191,8864.66,216.900
"2016-11-02 04:25:00 000",420.026,4.35142,2.16139,0.0665347,8886.38,228.572
"2016-11-02 04:35:00 000",415.311,0.995016,2.05848,0.0577222,8868.32,239.516
"2016-11-02 04:45:00 000",415.570,0.915646,2.04376,0.0208773,8721.84,234.528
"2016-11-02 04:55:00 000",416.974,1.76823,2.03300,0.0146208,8654.53,213.722
"2016-11-02 05:05:00 000",421.315,2.44119,2.15744,0.0734964,8554.67,223.321
"2016-11-02 05:15:00 000",422.830,3.08368,2.24462,0.0500933,8487.71,229.278
"2016-11-02 05:25:00 000",418.722,2.80570,2.12867,0.0654750,8492.11,223.137
"2016-11-02 05:35:00 000",419.249,2.17892,2.14989,0.0684016,8578.90,220.714
"2016-11-02 05:45:00 000",425.745,3.54235,2.10610,0.0565710,8450.89,216.097
"2016-11-02 05:55:00 000",421.763,2.94783,2.16721,0.0528520,8361.08,228.542
"2016-11-02 06:05:00 000",425.082,2.94739,2.13853,0.0541681,8407.70,227.453
"2016-11-02 06:15:00 000",418.745,2.00730,2.16259,0.0381411,8356.74,224.933
"2016-11-02 06:25:00 000",418.320,2.76960,2.11375,0.0669795,8409.38,241.788
"2016-11-02 06:35:00 000",413.517,3.92212,1.98474,0.0213439,8381.13,230.433
"2016-11-02 06:45:00 000",418.192,2.63103,2.08895,0.0393132,8358.70,238.383
"2016-11-02 06:55:00 000",416.840,2.34026,2.15380,0.0473983,8357.56,236.745
"2016-11-02 07:05:00 000",421.791,3.66418,2.14861,0.0563394,8359.58,235.635
"2016-11-02 07:15:00 000",425.377,2.59297,2.10724,0.0470467,8402.08,232.065
"2016-11-02 07:25:00 000",418.782,2.63650,2.03850,0.0328615,8455.93,225.303
"2016-11-02 07:35:00 000",419.845,2.04668,2.09538,0.0501342,8398.85,235.337
"2016-11-02 07:45:00 000",419.565,1.35240,2.09936,0.0535568,8381.41,228.604
"2016-11-02 07:55:00 000",419.120,1.71091,2.35868,0.115397,8499.60,225.012
"2016-11-02 08:05:00 000",422.175,2.71974,2.24475,0.0928518,8469.84,226.351
"2016-11-02 08:15:00 000",422.852,1.98807,2.14741,0.0659533,8515.81,236.746
"2016-11-02 08:25:00 000",426.063,2.58519,2.06464,0.0451861,8626.42,231.120
"2016-11-02 08:35:00 000",421.955,2.35810,2.01133,0.0187639,8657.58,243.654
"2016-11-02 08:45:00 000",420.996,2.52667,2.02982,0.0214516,8822.29,241.601
"2016-11-02 08:55:00 000",418.026,2.09760,1.99454,0.0142338,9028.06,230.820
"2016-11-02 09:05:00 000",418.724,2.13765,2.01667,0.0163570,8904.84,256.128
"2016-11-02 09:15:00 000",414.548,5.69063,1.97955,0.0209164,8441.59,249.159
"2016-11-02 09:25:00 000",412.681,6.43961,1.96876,0.0162219,8370.23,241.917
"2016-11-02 09:35:00 000",419.114,3.99178,2.00043,0.0177997,8515.20,235.121
"2016-11-02 09:45:00 000",410.566,3.37320,1.97271,0.0103971,8476.21,232.520
"2016-11-02 09:55:00 000",406.945,0.986173,1.97190,0.00585653,8407.53,239.612
"2016-11-02 10:05:00 000",406.817,0.910987,1.97216,0.00618672,8497.09,232.230
"2016-11-02 10:15:00 000",407.112,0.819113,1.97220,0.00559400,8576.02,241.628
"2016-11-02 10:25:00 000",406.002,1.04811,1.97259,0.00704205,8525.99,257.985
"2016-11-02 10:35:00 000",405.106,1.19574,1.97325,0.00616820,8450.50,224.667
"2016-11-02 10:45:00 000",404.810,1.63881,1.97336,0.00625125,8567.59,244.369
"2016-11-02 10:55:00 000",404.358,1.88932,1.96782,0.0102183,8852.62,239.407
"2016-11-02 11:05:00 000",409.645,3.26898,1.96915,0.0120934,8989.31,262.404
"2016-11-02 11:15:00 000",409.175,2.60885,1.98111,0.0118662,8965.61,263.384
"2016-11-02 11:25:00 000",411.682,2.69895,1.97246,0.00752731,8783.65,232.675
"2016-11-02 11:35:00 000",408.751,2.42791,1.96732,0.00896824,8687.49,235.134
"2016-11-02 11:45:00 000",408.359,3.42568,1.96757,0.00899488,8239.76,276.617
"2016-11-02 11:55:00 000",407.066,1.37238,1.97630,0.00944364,8116.89,228.723
"2016-11-02 12:05:00 000",406.470,1.61675,1.97234,0.00747004,8098.97,218.408
"2016-11-02 12:15:00 000",408.015,2.70191,1.97539,0.00874984,7835.87,216.140
"2016-11-02 12:25:00 000",408.055,2.03688,1.96846,0.0132261,7598.98,203.693
"2016-11-02 12:35:00 000",404.461,1.86822,1.95330,0.00578825,7363.40,233.332
"2016-11-02 12:45:00 000",405.916,2.61219,1.94801,0.00528473,7163.19,156.657
"2016-11-02 12:55:00 000",407.627,2.48842,1.95154,0.00509715,7278.06,156.054
"2016-11-02 13:05:00 000",403.956,2.12508,1.95083,0.00428597,7330.83,134.349
"2016-11-02 13:15:00 000",404.779,2.37975,1.95471,0.00510964,7317.88,161.022
"2016-11-02 13:25:00 000",411.475,3.90931,1.95862,0.00798484,7320.81,182.745
"2016-11-02 13:35:00 000",404.041,2.45502,1.98073,0.0125394,7538.58,154.343
"2016-11-02 13:45:00 000",404.096,2.93748,1.97413,0.00860149,7617.75,165.353
"2016-11-02 13:55:00 000",403.146,1.81717,1.97678,0.00723524,7454.23,175.472
"2016-11-02 14:05:00 000",406.365,3.11944,1.97358,0.00824623,7442.04,161.925
"2016-11-02 14:15:00 000",407.165,3.70946,1.97403,0.00696875,7339.47,168.725
"2016-11-02 14:25:00 000",408.905,2.98609,1.96651,0.00986645,7340.14,148.167
"2016-11-02 14:35:00 000",411.191,2.91329,1.97140,0.00768019,7363.43,159.340
"2016-11-02 14:45:00 000",408.470,2.92474,1.97139,0.0133177,7192.77,144.359
"2016-11-02 14:55:00 000",407.472,2.47313,1.97796,0.00948600,7129.19,145.886
"2016-11-02 15:05:00 000",409.421,4.50407,1.96561,0.0100980,7138.26,123.780
"2016-11-02 15:15:00 000",405.310,2.29780,1.95536,0.00869992,7113.47,147.392
"2016-11-02 15:25:00 000",406.993,3.09553,1.96303,0.00882830,7136.67,129.027
"2016-11-02 15:35:00 000",405.496,1.37643,1.96504,0.0107161,7221.85,136.098
"2016-11-02 15:45:00 000",403.850,0.880380,1.96020,0.00945712,7246.95,145.850
"2016-11-02 15:55:00 000",403.278,0.950230,1.94559,0.00647160,7224.30,146.179
"2016-11-02 16:05:00 000",403.396,0.927316,1.94287,0.00464771,7258.69,154.456
"2016-11-02 16:15:00 000",404.002,0.864992,1.94215,0.00521345,7348.95,153.666
"2016-11-02 16:25:00 000",403.632,0.918018,1.94530,0.00528941,7388.26,170.510
"2016-11-02 16:35:00 000",404.584,0.936514,1.94851,0.00542957,7425.08,158.884
"2016-11-02 16:45:00 000",404.937,0.893915,1.94720,0.00540184,7445.71,167.623
"2016-11-02 16:55:00 000",404.880,0.899078,1.95133,0.00553597,7297.26,177.718
"2016-11-02 17:05:00 000",404.760,0.976695,1.96236,0.00960970,7277.03,175.214
"2016-11-02 17:15:00 000",406.258,1.09374,1.96869,0.0148258,7284.86,178.181
"2016-11-02 17:25:00 000",406.967,0.938133,1.95587,0.00563000,7282.14,183.198
"2016-11-02 17:35:00 000",407.070,0.980981,1.95637,0.00542188,7377.36,195.798
"2016-11-02 17:45:00 000",406.547,1.03060,1.95893,0.00585925,7402.76,194.888
"2016-11-02 17:55:00 000",406.186,1.00247,1.95656,0.00613571,7428.06,213.686
"2016-11-02 18:05:00 000",407.276,0.893310,1.95628,0.00555033,7467.44,223.543
"2016-11-02 18:15:00 000",407.239,0.959040,1.95943,0.00712142,7536.92,217.899
"2016-11-02 18:25:00 000",407.963,0.868681,1.97075,0.00774833,7568.93,238.113
"2016-11-02 18:35:00 000",408.730,0.893748,1.98099,0.0145431,7535.28,236.237
"2016-11-02 18:45:00 000",408.051,0.901509,2.09889,0.0580723,7550.06,225.099
"2016-11-02 18:55:00 000",407.705,0.922497,2.01600,0.0443092,7575.51,225.248
"2016-11-02 19:05:00 000",407.844,0.902720,1.97290,0.00933433,7650.56,237.164
"2016-11-02 19:15:00 000",408.462,0.887742,1.97085,0.00887926,7638.55,240.737
"2016-11-02 19:25:00 000",408.346,0.885249,1.96816,0.00734530,7664.81,244.712
"2016-11-02 19:35:00 000",408.155,0.836223,1.96629,0.00680073,7616.70,236.731
"2016-11-02 19:45:00 000",408.449,0.868996,1.97084,0.00685372,7558.60,233.951
"2016-11-02 19:55:00 000",409.146,0.835375,1.96852,0.00660440,7666.49,230.896
"2016-11-02 20:05:00 000",409.690,0.901294,1.97177,0.00832024,7824.71,262.448
"2016-11-02 20:15:00 000",409.829,0.854188,1.97417,0.00676764,7890.57,246.842
"2016-11-02 20:25:00 000",410.101,0.893426,1.98368,0.00942633,7956.42,231.909
"2016-11-02 20:35:00 000",410.614,0.832961,1.99717,0.0147115,8002.96,243.888
"2016-11-02 20:45:00 000",411.223,0.827495,1.98993,0.00898291,7942.50,227.389
"2016-11-02 20:55:00 000",411.694,0.877666,1.98590,0.00887721,7939.46,240.704
"2016-11-02 21:05:00 000",412.547,0.887945,2.01922,0.0275347,7860.30,247.764
"2016-11-02 21:15:00 000",412.663,0.803985,2.00523,0.0108500,7846.48,234.421
"2016-11-02 21:25:00 000",411.552,0.891768,1.98659,0.00779851,7808.79,227.650
"2016-11-02 21:35:00 000",411.528,0.859360,1.99093,0.00929996,7774.63,238.005
"2016-11-02 21:45:00 000",411.220,0.901627,1.99355,0.00961094,7786.59,230.214
"2016-11-02 21:55:00 000",411.324,0.917833,1.98156,0.00791400,7788.51,253.380
"2016-11-02 22:05:00 000",412.633,1.03468,1.97948,0.00593942,7811.17,239.526
"2016-11-02 22:15:00 000",413.140,0.906350,1.98093,0.00577801,7820.99,238.899
"2016-11-02 22:25:00 000",412.638,0.966473,1.99463,0.0144687,7872.94,241.367
"2016-11-02 22:35:00 000",411.692,0.895906,2.00676,0.0105657,7920.54,233.084
"2016-11-02 22:45:00 000",412.244,0.935721,2.01494,0.0147026,7943.20,238.191
"2016-11-02 22:55:00 000",411.799,0.937939,2.02165,0.0136187,7930.62,234.821
"2016-11-02 23:05:00 000",411.482,0.908803,2.03630,0.0156298,8005.61,238.757
"2016-11-02 23:15:00 000",411.947,1.18628,2.04566,0.0197331,7916.05,221.056
"2016-11-02 23:25:00 000",412.409,1.22088,2.04411,0.0203348,7933.06,234.562
"2016-11-02 23:35:00 000",411.805,0.886487,2.03188,0.0225618,7986.58,231.508
"2016-11-02 23:45:00 000",412.116,0.868442,2.02219,0.0136615,8026.68,238.771
"2016-11-02 23:55:00 000",412.814,0.900445,2.05444,0.0174136,7983.45,243.272
"2016-11-03 00:05:00 000",412.996,1.03501,2.04006,0.0214485,7947.40,246.229
"2016-11-03 00:15:00 000",412.482,1.44588,2.01175,0.0131002,7996.79,240.070
"2016-11-03 00:25:00 000",411.471,0.991806,1.98820,0.00654628,8087.14,244.160
"2016-11-03 00:35:00 000",412.037,0.982782,1.98703,0.00697291,8121.17,243.773
"2016-11-03 00:45:00 000",414.898,2.92030,2.00354,0.0101399,8154.03,239.774
"2016-11-03 00:55:00 000",415.348,2.73944,2.00953,0.0122833,8146.16,247.430
"2016-11-03 01:05:00 000",416.257,1.93101,2.01178,0.0109174,8205.61,242.223
"2016-11-03 01:15:00 000",417.064,2.70361,2.00276,0.0104077,8228.57,239.026
"2016-11-03 01:25:00 000",416.325,2.67784,2.01935,0.0188815,8306.39,226.671
"2016-11-03 01:35:00 000",413.579,1.42046,2.01679,0.0186635,8296.57,246.724
"2016-11-03 01:45:00 000",413.862,1.11010,1.99605,0.00937751,8348.53,226.228
"2016-11-03 01:55:00 000",413.273,1.21059,2.02178,0.0118705,8301.96,239.706
"2016-11-03 02:05:00 000",412.979,1.87049,2.00830,0.0198271,8255.30,250.836
"2016-11-03 02:15:00 000",411.130,1.13693,1.98652,0.00785421,8288.73,232.316
"2016-11-03 02:25:00 000",410.424,1.05529,2.02472,0.0654589,8283.96,230.179